This is the latest recevied weather packets stored in our database for station/object AF9W-5. If no packets are shown the sender has not sent any weather packets the latest 10 day(s).
| Time | Temp. | Humidity | Pressure | Rain* | Wind** | Luminosity | Snow |
|---|---|---|---|---|---|---|---|
| 1777521807 | 21.11° C | 18% | 1013.9 hPa | 0 mm | - | 0 W/m² | - |
| 1777521503 | 21.11° C | 19% | 1013.7 hPa | 0 mm | - | 0 W/m² | - |
| 1777521201 | 21.11° C | 19% | 1013.9 hPa | 0 mm | - | 0 W/m² | - |
| 1777520898 | 21.67° C | 19% | 1013.5 hPa | 0 mm | - | 0 W/m² | - |
| 1777520595 | 21.67° C | 19% | 1013.6 hPa | 0 mm | - | 0 W/m² | - |
| 1777520291 | 21.11° C | 19% | 1013.3 hPa | 0 mm | - | 0 W/m² | - |
| 1777519990 | 20.56° C | 20% | 1013.5 hPa | 0 mm | - | 0 W/m² | - |
| 1777519686 | 20.56° C | 20% | 1013.6 hPa | 0 mm | - | 0 W/m² | - |
| 1777519383 | 20.56° C | 20% | 1013.2 hPa | 0 mm | - | 0 W/m² | - |
| 1777519080 | 21.11° C | 20% | 1013.4 hPa | 0 mm | - | 0 W/m² | - |
| 1777518776 | 21.11° C | 19% | 1013.2 hPa | 0 mm | - | 0 W/m² | - |
| 1777518472 | 21.11° C | 20% | 1013 hPa | 0 mm | - | 0 W/m² | - |
| 1777518167 | 21.11° C | 20% | 1013.1 hPa | 0 mm | - | 0 W/m² | - |
| 1777517864 | 21.67° C | 19% | 1013.4 hPa | 0 mm | - | 0 W/m² | - |
| 1777517560 | 21.67° C | 19% | 1012.8 hPa | 0 mm | - | 0 W/m² | - |
| 1777517258 | 22.22° C | 19% | 1012.9 hPa | 0 mm | - | 0 W/m² | - |
| 1777516957 | 22.22° C | 18% | 1012.9 hPa | 0 mm | - | 0 W/m² | - |
| 1777516653 | 22.22° C | 18% | 1012.9 hPa | 0 mm | - | 0 W/m² | - |
| 1777516349 | 22.78° C | 18% | 1012.5 hPa | 0 mm | - | 0 W/m² | - |
| 1777516045 | 22.78° C | 18% | 1012.4 hPa | 0 mm | - | 0 W/m² | - |
| 1777515743 | 23.33° C | 18% | 1012.6 hPa | 0 mm | - | 0 W/m² | - |
| 1777515439 | 23.33° C | 17% | 1012.8 hPa | 0 mm | - | 0 W/m² | - |
| 1777515136 | 23.33° C | 17% | 1012.5 hPa | 0 mm | - | 1 W/m² | - |
| 1777514832 | 23.89° C | 17% | 1012.8 hPa | 0 mm | - | 1 W/m² | - |
| 1777514529 | 23.89° C | 17% | 1012.4 hPa | 0 mm | - | 2 W/m² | - |
* Rain latest hour (hover to see other rain measurements)
** Current wind speed in m/s (hover to see current wind gust speed)